Find Starlink 37591

NORAD ID: 69033 Int'l Des: 2026-101 Owner: SPXS Country: US Constellation: starlink operational
LEOCIRCULARRETROGRADE

当前视图

正在加载3D地球...

About Starlink 37591

Starlink 37591 (NORAD 69033) is a starlink constellation satellite (v2 mini) launched May 6, 2026 by SPXS of US. It operates in LEO, CIRCULAR, RETROGRADE orbit with a mass of 575.00 kg.

即将过境

Passes for default location (London). Set your location on the main map for personalized predictions.

高度历史

Loading altitude history...

两行轨道根数

1 69033U 26101J 26234.56376980 .00021070 00000-0 65320-3 0 9991
2 69033 97.2853 88.4486 0001868 95.2455 264.9001 15.33442357 16745
Epoch: Aug 22, 2026 • Age: 38 hours

当前状态

高度 474.4 km
远地点 / 近地点 N/A
速度 7.63 km/s
星下点 -22.41°S, 125.37°W
发射日期 May 6, 2026
运行时间 0.3 years
类型 internet

技术详情

分类 Payload
质量 575.00 kg
干质量 530.00 kg
总质量 575.00 kg
长度 0.30 m
直径 4.10 m
跨度 29.00 m
形状 Box + pan
制造商 SPXS
平台类型 Starlink V2MO
阶段状态 In Orbit
所有者/国家 SPXS/US

Most Searched